Meeker, CO

4:48 PM MDT on August 31, 2016 (GMT -0600)
Meeker

Weather History for KEEO - January, 2013

Change the Weather History Date:

Saturday, January 5, 2013

  Actual Average Record
Temperature  
Mean Temperature 0 °F 20 °F  
Max Temperature 17 °F 33 °F 53 °F (2012)
Min Temperature -18 °F 6 °F -18 °F (2009)
Degree Days  
Heating Degree Days 65 45  
Month to date heating degree days 329 228  
Since 1 July heating degree days 3360 3517  
Cooling Degree Days 0 0  
Month to date cooling degree days 0 0  
Year to date cooling degree days 0 0  
Moisture  
Dew Point -10 °F    
Average Humidity 74    
Maximum Humidity 95    
Minimum Humidity 53    
Precipitation  
Precipitation 0.00 in 0.03 in 0.78 in (2008)
Month to date precipitation T 0.18  
Year to date precipitation T 0.18  
Sea Level Pressure  
Sea Level Pressure 30.71 in    
Wind  
Wind Speed 1 mph (East)    
Max Wind Speed 6 mph    
Max Gust Speed 9 mph    
Visibility 10 miles    
Events      
T = Trace of Precipitation, MM = Missing Value Source: NWS Daily Summary

Daily Weather History Graph

Daily Weather History Graph

Search for Another Location

Airport or City:

Trip Planner

Search our weather history database for the weather conditions in past years. The results will help you decide how hot, cold, wet, or windy it might be!

Date:

Astronomy

Jan. 05, 2013 Rise Set
Actual Time 7:33 AM MST 5:00 PM MST
Civil Twilight 7:03 AM MST 5:31 PM MST
Nautical Twilight 6:29 AM MST 6:04 PM MST
Astronomical Twilight 5:56 AM MST 6:37 PM MST
Moon 12:43 AM MST (1/5) 11:52 AM MST (1/5)
Length of Visible Light 10h 27m
Length of Day
9h 27m
Last Quarter, 43% of the Moon is Illuminated
Jan 5
Last Quarter
Jan 11
New
Jan 18
First Quarter
Jan 26
Full
Feb 3
Last Quarter

Hourly Weather History & Observations

Time (MST) Temp. Windchill Dew Point Humidity Pressure Visibility Wind Dir Wind Speed Gust Speed Precip Events Conditions
12:53 AM -15.0 °F -25.0 °F -18.9 °F 82% 30.61 in 10.0 mi ESE 3.5 mph - N/A   Clear
1:53 AM -16.1 °F - -18.9 °F 87% 30.61 in 10.0 mi Calm Calm - N/A   Clear
2:53 AM -13.0 °F - -18.0 °F 78% 30.60 in 10.0 mi Calm Calm - N/A   Clear
3:53 AM -11.9 °F - -16.1 °F 82% 30.61 in 10.0 mi Calm Calm - N/A   Clear
4:53 AM -15.0 °F - -20.0 °F 78% 30.69 in 10.0 mi Calm Calm - N/A   Clear
5:53 AM -16.1 °F -30.6 °F -20.0 °F 82% 30.74 in 10.0 mi East 5.8 mph - N/A   Clear
6:53 AM -17.0 °F - -22.0 °F 78% 30.78 in 10.0 mi Calm Calm - N/A   Clear
7:53 AM -18.0 °F -28.5 °F -22.0 °F 82% 30.83 in 10.0 mi ENE 3.5 mph - N/A   Clear
8:53 AM -7.1 °F - -9.0 °F 91% 30.77 in 10.0 mi Calm Calm - N/A   Clear
9:53 AM -4.0 °F - -6.0 °F 91% 30.76 in 10.0 mi Calm Calm - N/A   Clear
10:53 AM 3.9 °F - -2.0 °F 76% 30.75 in 10.0 mi Calm Calm - N/A   Clear
11:53 AM 10.0 °F - -0.0 °F 64% 30.70 in 10.0 mi Calm Calm - N/A   Clear
12:53 PM 10.9 °F - 1.9 °F 67% 30.68 in 10.0 mi Calm Calm - N/A   Clear
1:53 PM 15.1 °F - 3.0 °F 59% 30.66 in 10.0 mi Calm Calm - N/A   Clear
2:53 PM 17.1 °F - 3.0 °F 54% 30.63 in 10.0 mi Calm Calm - N/A   Clear
3:53 PM 16.0 °F - 1.9 °F 54% 30.63 in 10.0 mi Calm Calm - N/A   Clear
4:53 PM 7.0 °F - -2.0 °F 67% 30.70 in 10.0 mi Calm Calm - N/A   Clear
5:53 PM -2.9 °F - -9.0 °F 75% 30.79 in 10.0 mi Calm Calm - N/A   Clear
6:53 PM -2.0 °F - -7.1 °F 79% 30.79 in 10.0 mi Calm Calm - N/A   Clear
7:53 PM -4.0 °F - -9.9 °F 76% 30.80 in 10.0 mi Calm Calm - N/A   Clear
8:53 PM -8.0 °F -16.9 °F -11.9 °F 83% 30.76 in 10.0 mi East 3.5 mph - N/A   Clear
9:53 PM -6.0 °F - -9.9 °F 83% 30.73 in 10.0 mi Calm Calm - N/A   Clear
10:53 PM -9.9 °F -19.2 °F -13.0 °F 86% 30.71 in 10.0 mi ENE 3.5 mph - N/A   Clear
11:53 PM -11.0 °F - -15.0 °F 83% 30.68 in 10.0 mi Calm Calm - N/A   Clear